Tracking 19909 objects as of 22-Oct-2019
HD Live streaming from Space Station
objects crossing your sky now

BEIDOU 3 IGSO-2

Track BEIDOU 3 IGSO-2 now!


NORAD ID: 44337
Int'l Code: 2019-035A
Perigee: 35,747.1 km
Apogee: 35,845.4 km
Inclination: 55.1 °
Period: 1,436.2 minutes
Semi major axis: 42167 km
RCS: Unknown
Launch date: June 24, 2019
Source: People's Republic of China (PRC)
Launch site: Xichang Space Center, China (XSC)
aabbcc
Your satellite tracking list
Your tracking list is empty




NASA's NSSDC Master Catalog

Two Line Element Set (TLE):
1 44337U 19035A   19294.91658554 -.00000127  00000-0  00000+0 0  9997
2 44337  55.0513 180.5047 0011651 176.4975 110.3323  1.00262941  1324
Source of the keplerian elements: AFSPC